User: anonymous   Login
Location: Chenereilles
(45.4866°N, 4.0790°E)
Time: 22:24:10
(UTC+00:00)
Language:

Cosmos 1825 - Orbit

View from above orbital plane
View from above orbital plane
View from above satellite
View from above satellite

Ground track
Ground track

The orbit data is extracted from the following two-line orbital elements,

1 17566U 87024A   20027.21146513 +.00000379 +00000-0 +16096-4 0  9995
2 17566 082.5031 063.3569 0005264 118.9969 241.1794 15.19900133798417
Epoch (UTC): 27 January 2020 05:04:30
Eccentricity: 0.0005264
inclination: 82.5031°
perigee height: 502 km
apogee height: 510 km
right ascension of ascending node: 63.3569°
argument of perigee: 118.9969°
revolutions per day: 15.19900133
mean anomaly at epoch: 241.1794°
orbit number at epoch: 79841

The dashed part of the orbit path shows where the satellite is in the earth's shadow,  

DLR